Regional Weather Roundup
Issued by NWS

Home | Current Version | Previous Version | Graphics & Text | Print | Product List | Glossary On
Versions: 1 2 3 4 5 6 7 8 9 10 11 12 13 14 15 16 17 18 19 20 21 22 23 24 25 26 27 28 29 30 31 32 33 34 35 36 37 38 39 40 41 42 43 44 45 46 47 48 49 50
000
ASUS45 KPSR 020000
RWRAZ

ARIZONA HOURLY REGIONAL WEATHER ROUNDUP
NATIONAL WEATHER SERVICE PHOENIX AZ
500 PM MST SAT AUG 01 2015

NOTE: FAIR INDICATES FEW OR NO CLOUDS BELOW 12,000 FEET WITH NO
SIGNIFICANT WEATHER AND/OR OBSTRUCTIONS TO VISIBILITY.

AZZ001>003-036-020100-
NORTHWEST ARIZONA

CITY           SKY/WX    TMP DP  RH WIND       PRES   REMARKS
KINGMAN        PTSUNNY   85  57  38 N13       30.04F
6HR MIN TEMP:  72; 6HR MAX TEMP:  85; 6HR PCP:  0.01;

$$

AZZ004>008-015-016-018-020100-
NORTH CENTRAL ARIZONA

CITY           SKY/WX    TMP DP  RH WIND       PRES   REMARKS
GRAND CANYON   CLOUDY    72  53  51 N3        30.26F
6HR MIN TEMP:  67; 6HR MAX TEMP:  74; 6HR PCP: TRACE;

WILLIAMS       PTSUNNY   75  55  50 NE10      30.31F
PRESCOTT       PTSUNNY   84  56  38 VRB5      30.11F
6HR MIN TEMP:  76; 6HR MAX TEMP:  84; 6HR PCP: TRACE;

FLAGSTAFF      NOT AVBL
PAYSON         CLOUDY    73  61  64 N7        30.11F
PAGE           PTSUNNY   92  50  23 VRB3      30.03F
6HR MIN TEMP:  83; 6HR MAX TEMP:  93;

$$

AZZ009>014-017-020100-
NORTHEAST ARIZONA

CITY           SKY/WX    TMP DP  RH WIND       PRES   REMARKS
WINSLOW        NOT AVBL
SAINT JOHNS    CLOUDY    76  59  55 CALM      30.17F
6HR MIN TEMP:  68; 6HR MAX TEMP:  83; 6HR PCP:  0.06;

SHOW LOW       CLOUDY    64  57  77 NE12      30.25S
$$

AZZ023-020100-
GREATER PHOENIX AREA

CITY           SKY/WX    TMP DP  RH WIND       PRES   REMARKS
PHOENIX        MOSUNNY  103  59  23 SW9       29.75F HX 103
6HR MIN TEMP:  93; 6HR MAX TEMP: 103;

GLENDALE       MOSUNNY  104  57  21 SW3       29.77F HX 103
LUKE AFB       SUNNY    102  59  24 N3        29.75F HX 102
DEER VALLEY    SUNNY    101  58  24 S5        29.78F HX 100
6HR MIN TEMP:  94; 6HR MAX TEMP: 102;

SCOTTSDALE     SUNNY    101  57  23 VRB5      29.80F HX 100
6HR MIN TEMP:  93; 6HR MAX TEMP: 102;

MESA-FALCON    PTSUNNY  100  59  25 W12       29.78F HX 100
MESA-GATEWAY   MOSUNNY  100  63  28 W7G17     29.81F HX 102
$$

AZZ027-028-020100-
SOUTHWEST MARICOPA COUNTY AND PINAL COUNTY

CITY           SKY/WX    TMP DP  RH WIND       PRES   REMARKS
CASA GRANDE    SUNNY     99  59  26 CALM      29.79F
6HR MIN TEMP:  90; 6HR MAX TEMP:  99;

$$

AZZ503-504-507>509-020100-
SOUTHEAST ARIZONA

CITY           SKY/WX    TMP DP  RH WIND       PRES   REMARKS
TUCSON         TSTM      80  64  58 SE17      29.95R
6HR MIN TEMP:  79; 6HR MAX TEMP:  99; 6HR PCP:  0.32;

DAVIS-MONTHAN  MOSUNNY   84  60  44 S8G17     29.94S THUNDER
6HR MIN TEMP:  80; 6HR MAX TEMP:  97; 6HR PCP: TRACE;

RYAN FIELD     MOSUNNY   91  64  40 E15G24    29.91R
NOGALES        CLOUDY    84  61  45 E12       30.01F
6HR MIN TEMP:  84; 6HR MAX TEMP:  92;

SIERRA VISTA   LGT RAIN  73  57  56 VRB2      30.12R
6HR MIN TEMP:  67; 6HR MAX TEMP:  84; 6HR PCP:  0.05;

SAFFORD        PTSUNNY   95  57  27 VRB5      29.91F
6HR MIN TEMP:  89; 6HR MAX TEMP:  99;

$$

AZZ020-021-025-026-031-020100-
SOUTHWEST ARIZONA

CITY           SKY/WX    TMP DP  RH WIND       PRES   REMARKS
YUMA           NOT AVBL
$$

CAZ031-033-041-043-047-048-061-020100-
SOUTHERN CALIFORNIA

CITY           SKY/WX    TMP DP  RH WIND       PRES   REMARKS
DOWNTOWN L.A.  SUNNY     78  63  59 MISG      29.89F
6HR MIN TEMP:  77; 6HR MAX TEMP:  83;

L.A. AIRPORT   MOSUNNY   75  65  70 W12       29.90F
6HR MIN TEMP:  72; 6HR MAX TEMP:  75;

SAN DIEGO      PTSUNNY   75  61  61 W9        29.93S
6HR MIN TEMP:  74; 6HR MAX TEMP:  77;

BURBANK        SUNNY     84  62  47 S10       29.89S
6HR MIN TEMP:  77; 6HR MAX TEMP:  88;

ONTARIO        PTSUNNY   89  61  38 SW13G24   29.88S
6HR MIN TEMP:  80; 6HR MAX TEMP:  95;

RIVERSIDE      PTSUNNY   87  60  40 W10G17    29.88S
6HR MIN TEMP:  79; 6HR MAX TEMP:  94;

PALM SPRINGS   MOSUNNY  110  45  11 E10       29.76F HX 105
6HR MIN TEMP: 100; 6HR MAX TEMP: 111;

EL CENTRO NAS  MOSUNNY  108  46  12 CALM      29.72F HX 104
6HR MIN TEMP: 101; 6HR MAX TEMP: 110;

IMPERIAL       MOSUNNY  109  50  14 E7        29.70F HX 106
6HR MIN TEMP: 100; 6HR MAX TEMP: 110;

BLYTHE         MOSUNNY  103  58  22 E12       29.77F HX 102
6HR MIN TEMP:  98; 6HR MAX TEMP: 104;

$$

NVZ020-UTZ003-020100-
SOUTHERN NEVADA-UTAH

CITY           SKY/WX    TMP DP  RH WIND       PRES   REMARKS
LAS VEGAS      NOT AVBL
SALT LAKE CITY PTSUNNY   93  31  11 NW10      30.00F
6HR MIN TEMP:  87; 6HR MAX TEMP:  95;

$$

NMZ009-TXZ055-020100-
NEW MEXICO-WEST TEXAS

CITY           SKY/WX    TMP DP  RH WIND       PRES   REMARKS
ALBUQUERQUE    PTSUNNY   87  47  24 W6        30.11F
6HR MIN TEMP:  79; 6HR MAX TEMP:  88;

EL PASO        MOSUNNY   94  47  20 S6        29.99F
6HR MIN TEMP:  88; 6HR MAX TEMP:  96;

$$


........................KEY........................
SKY/WX - SKY CONDITION/WEATHER
TMP    - TEMPERATURE IN FAHRENHEIT
DP     - DEW POINT IN FAHRENHEIT
RH     - RELATIVE HUMIDITY IN PERCENT
WIND   - DIRECTION AND SPEED IN MILES PER HOUR (MPH)
VRB    - VARIABLE WIND DIRECTION
PRES   - MEAN SEA LEVEL PRESSURE IN INCHES OF MERCURY
         F - FALLING PRESSURE   R - RISING PRESSURE
         S - STEADY PRESSURE
VSB    - VISIBILITY IN MILES
HX     - HEAT INDEX IN FAHRENHEIT
WCI    - WIND CHILL INDEX IN FAHRENHEIT
TC     - TEMPERATURE IN CELSIUS WHICH IS ALSO KNOWN AS
         TEMPERATURE IN CENTIGRADE
AFB    - AIR FORCE BASE
         LUKE AFB IS LUKE AIR FORCE BASE
         DAVIS-MONTHAN IS DAVIS-MONTHAN AIR FORCE BASE
NAS    - NAVAL AIR STATION
         EL CENTRO NAS IS EL CENTRO NAVAL AIR STATION
N/A    - NOT AVAILABLE



USA.gov is the U.S. government's official web portal to all federal, state and local government web resources and services.